Time,TemperatureF,DewpointF,PressureIn,WindDirection,WindDirectionDegrees,WindSpeedMPH,WindSpeedGustMPH,Humidity,HourlyPrecipIn,Conditions,Clouds,dailyrainin,SoftwareType,DateUTC
2013-10-28 00:12:00,34.2,31.6,30.05,SE,135,0.0,-999.0,90,-99.99,,,0.00,Acu-Link.com,2013-10-28 04:12:00,
2013-10-28 00:27:00,33.8,31.7,30.05,East,90,0.0,-999.0,92,-99.99,,,0.00,Acu-Link.com,2013-10-28 04:27:00,
2013-10-28 00:42:00,33.6,32.1,30.05,SE,135,0.0,-999.0,94,-99.99,,,0.00,Acu-Link.com,2013-10-28 04:42:00,
2013-10-28 00:57:00,33.6,32.1,30.05,SW,225,0.0,-999.0,94,-99.99,,,0.00,Acu-Link.com,2013-10-28 04:57:00,
2013-10-28 01:13:00,33.1,31.8,30.04,ESE,112,0.0,-999.0,95,-99.99,,,0.00,Acu-Link.com,2013-10-28 05:13:00,
2013-10-28 01:28:00,32.7,31.7,30.05,East,90,0.0,-999.0,96,-99.99,,,0.00,Acu-Link.com,2013-10-28 05:28:00,
2013-10-28 01:43:00,32.5,31.5,30.05,SE,135,0.0,-999.0,96,-99.99,,,0.00,Acu-Link.com,2013-10-28 05:43:00,
2013-10-28 01:58:00,32.5,32.0,30.04,ESE,112,0.0,-999.0,98,-99.99,,,0.00,Acu-Link.com,2013-10-28 05:58:00,
2013-10-28 02:13:00,32.9,32.4,30.04,ESE,112,0.0,-999.0,98,-99.99,,,0.00,Acu-Link.com,2013-10-28 06:13:00,
2013-10-28 02:28:00,33.6,32.8,30.05,ESE,112,0.0,-999.0,97,-99.99,,,0.00,Acu-Link.com,2013-10-28 06:28:00,
2013-10-28 02:44:00,34.2,33.4,30.05,ESE,112,0.0,-999.0,97,-99.99,,,0.00,Acu-Link.com,2013-10-28 06:44:00,
2013-10-28 02:59:00,34.3,33.5,30.05,ESE,112,0.0,-999.0,97,-99.99,,,0.00,Acu-Link.com,2013-10-28 06:59:00,
2013-10-28 03:14:00,34.7,33.9,30.05,ESE,112,0.0,-999.0,97,-99.99,,,0.00,Acu-Link.com,2013-10-28 07:14:00,
2013-10-28 03:29:00,35.8,34.5,30.04,ESE,112,0.0,-999.0,95,-99.99,,,0.00,Acu-Link.com,2013-10-28 07:29:00,
2013-10-28 03:45:00,36.0,34.7,30.05,ESE,112,0.0,-999.0,95,-99.99,,,0.00,Acu-Link.com,2013-10-28 07:45:00,
2013-10-28 04:00:00,36.5,34.9,30.06,ESE,112,2.2,-999.0,94,-99.99,,,0.00,Acu-Link.com,2013-10-28 08:00:00,
2013-10-28 04:15:00,36.5,34.9,30.05,ESE,112,2.2,-999.0,94,-99.99,,,0.00,Acu-Link.com,2013-10-28 08:15:00,
2013-10-28 04:30:00,36.5,34.7,30.06,ESE,112,0.0,-999.0,93,-99.99,,,0.00,Acu-Link.com,2013-10-28 08:30:00,
2013-10-28 04:45:00,36.0,34.4,30.07,SE,135,0.0,-999.0,94,-99.99,,,0.00,Acu-Link.com,2013-10-28 08:45:00,
2013-10-28 05:00:00,35.2,34.2,30.07,SE,135,0.0,-999.0,96,-99.99,,,0.00,Acu-Link.com,2013-10-28 09:00:00,
2013-10-28 05:15:00,35.1,34.3,30.07,SE,135,0.0,-999.0,97,-99.99,,,0.00,Acu-Link.com,2013-10-28 09:15:00,
2013-10-28 05:31:00,34.7,33.9,30.08,SE,135,0.0,-999.0,97,-99.99,,,0.00,Acu-Link.com,2013-10-28 09:31:00,
2013-10-28 05:46:00,34.0,33.5,30.09,SE,135,0.0,-999.0,98,-99.99,,,0.00,Acu-Link.com,2013-10-28 09:46:00,
2013-10-28 06:01:00,33.1,32.8,30.09,NNE,22,0.0,-999.0,99,-99.99,,,0.00,Acu-Link.com,2013-10-28 10:01:00,
2013-10-28 06:16:00,31.8,31.6,30.10,ESE,112,0.0,-999.0,99,-99.99,,,0.00,Acu-Link.com,2013-10-28 10:16:00,
2013-10-28 06:31:00,31.6,31.4,30.10,ESE,112,0.0,-999.0,99,-99.99,,,0.00,Acu-Link.com,2013-10-28 10:31:00,
2013-10-28 06:46:00,32.4,32.2,30.10,SSE,157,0.0,-999.0,99,-99.99,,,0.00,Acu-Link.com,2013-10-28 10:46:00,
2013-10-28 07:01:00,33.1,32.8,30.10,SE,135,0.0,-999.0,99,-99.99,,,0.00,Acu-Link.com,2013-10-28 11:01:00,
2013-10-28 07:17:00,33.8,33.5,30.10,SE,135,0.0,-999.0,99,-99.99,,,0.00,Acu-Link.com,2013-10-28 11:17:00,
2013-10-28 07:32:00,34.5,34.2,30.11,ESE,112,2.7,-999.0,99,-99.99,,,0.00,Acu-Link.com,2013-10-28 11:32:00,
2013-10-28 07:47:00,35.1,34.8,30.11,ESE,112,2.2,-999.0,99,-99.99,,,0.00,Acu-Link.com,2013-10-28 11:47:00,
2013-10-28 08:02:00,35.1,34.8,30.13,ESE,112,2.7,-999.0,99,-99.99,,,0.00,Acu-Link.com,2013-10-28 12:02:00,
2013-10-28 08:17:00,35.6,35.3,30.13,SE,135,2.2,-999.0,99,-99.99,,,0.00,Acu-Link.com,2013-10-28 12:17:00,
2013-10-28 08:33:00,36.1,35.8,30.14,ESE,112,2.2,-999.0,99,-99.99,,,0.00,Acu-Link.com,2013-10-28 12:33:00,
2013-10-28 08:48:00,36.7,36.4,30.15,ESE,112,2.2,-999.0,99,-99.99,,,0.00,Acu-Link.com,2013-10-28 12:48:00,
2013-10-28 09:03:00,37.0,36.5,30.16,SE,135,1.7,-999.0,98,-99.99,,,0.00,Acu-Link.com,2013-10-28 13:03:00,
2013-10-28 09:18:00,37.9,36.9,30.17,SSE,157,0.0,-999.0,96,-99.99,,,0.00,Acu-Link.com,2013-10-28 13:18:00,
2013-10-28 09:33:00,39.0,37.2,30.17,South,180,1.1,-999.0,93,-99.99,,,0.00,Acu-Link.com,2013-10-28 13:33:00,
2013-10-28 09:49:00,39.7,37.8,30.17,SW,225,0.0,-999.0,93,-99.99,,,0.00,Acu-Link.com,2013-10-28 13:49:00,
2013-10-28 10:04:00,42.6,39.0,30.17,SW,225,0.0,-999.0,87,-99.99,,,0.00,Acu-Link.com,2013-10-28 14:04:00,
2013-10-28 10:19:00,44.8,38.4,30.18,SW,225,1.7,-999.0,78,-99.99,,,0.00,Acu-Link.com,2013-10-28 14:19:00,
2013-10-28 10:34:00,45.7,37.9,30.18,West,270,3.2,-999.0,74,-99.99,,,0.00,Acu-Link.com,2013-10-28 14:34:00,
2013-10-28 10:50:00,46.6,38.1,30.18,West,270,2.2,-999.0,72,-99.99,,,0.00,Acu-Link.com,2013-10-28 14:50:00,
2013-10-28 11:05:00,46.9,37.6,30.18,South,180,4.2,-999.0,70,-99.99,,,0.00,Acu-Link.com,2013-10-28 15:05:00,
2013-10-28 11:20:00,47.5,37.8,30.18,WSW,247,2.7,-999.0,69,-99.99,,,0.00,Acu-Link.com,2013-10-28 15:20:00,
2013-10-28 11:35:00,49.1,37.8,30.18,West,270,2.7,-999.0,65,-99.99,,,0.00,Acu-Link.com,2013-10-28 15:35:00,
2013-10-28 11:50:00,49.6,35.9,30.18,WNW,292,4.2,-999.0,59,-99.99,,,0.00,Acu-Link.com,2013-10-28 15:50:00,
2013-10-28 12:06:00,49.3,36.4,30.17,NNW,337,0.0,-999.0,61,-99.99,,,0.00,Acu-Link.com,2013-10-28 16:06:00,
2013-10-28 12:21:00,50.7,36.5,30.18,SSW,202,1.7,-999.0,58,-99.99,,,0.00,Acu-Link.com,2013-10-28 16:21:00,
2013-10-28 12:36:00,51.6,36.4,30.17,West,270,4.2,-999.0,56,-99.99,,,0.00,Acu-Link.com,2013-10-28 16:36:00,
2013-10-28 12:51:00,52.2,37.0,30.17,East,90,2.2,-999.0,56,-99.99,,,0.00,Acu-Link.com,2013-10-28 16:51:00,
2013-10-28 13:07:00,52.9,36.7,30.16,WNW,292,3.2,-999.0,54,-99.99,,,0.00,Acu-Link.com,2013-10-28 17:07:00,
2013-10-28 13:22:00,53.8,36.6,30.15,NNW,337,2.7,-999.0,52,-99.99,,,0.00,Acu-Link.com,2013-10-28 17:22:00,
2013-10-28 13:37:00,54.1,35.9,30.15,West,270,4.2,-999.0,50,-99.99,,,0.00,Acu-Link.com,2013-10-28 17:37:00,
2013-10-28 13:52:00,55.2,34.8,30.15,West,270,3.7,-999.0,46,-99.99,,,0.00,Acu-Link.com,2013-10-28 17:52:00,
2013-10-28 14:08:00,55.8,34.8,30.14,NNE,22,4.2,-999.0,45,-99.99,,,0.00,Acu-Link.com,2013-10-28 18:08:00,
2013-10-28 14:23:00,54.9,34.0,30.14,West,270,3.2,-999.0,45,-99.99,,,0.00,Acu-Link.com,2013-10-28 18:23:00,
2013-10-28 14:38:00,56.1,34.5,30.14,ESE,112,3.7,-999.0,44,-99.99,,,0.00,Acu-Link.com,2013-10-28 18:38:00,
2013-10-28 14:53:00,56.3,33.5,30.15,NNE,22,4.7,-999.0,42,-99.99,,,0.00,Acu-Link.com,2013-10-28 18:53:00,
2013-10-28 15:08:00,56.3,34.1,30.14,NW,315,5.8,-999.0,43,-99.99,,,0.00,Acu-Link.com,2013-10-28 19:08:00,
2013-10-28 15:24:00,56.7,34.5,30.15,NNE,22,2.7,-999.0,43,-99.99,,,0.00,Acu-Link.com,2013-10-28 19:24:00,
2013-10-28 15:39:00,57.2,34.9,30.14,West,270,3.7,-999.0,43,-99.99,,,0.00,Acu-Link.com,2013-10-28 19:39:00,
2013-10-28 15:54:00,57.9,35.5,30.15,NW,315,4.7,-999.0,43,-99.99,,,0.00,Acu-Link.com,2013-10-28 19:54:00,
2013-10-28 16:10:00,56.5,33.7,30.15,West,270,3.7,-999.0,42,-99.99,,,0.00,Acu-Link.com,2013-10-28 20:10:00,
2013-10-28 16:25:00,56.5,33.1,30.16,WSW,247,2.7,-999.0,41,-99.99,,,0.00,Acu-Link.com,2013-10-28 20:25:00,
2013-10-28 16:40:00,56.7,32.0,30.16,West,270,1.7,-999.0,39,-99.99,,,0.00,Acu-Link.com,2013-10-28 20:40:00,
2013-10-28 16:55:00,56.3,31.7,30.16,SSW,202,2.7,-999.0,39,-99.99,,,0.00,Acu-Link.com,2013-10-28 20:55:00,
2013-10-28 17:10:00,55.4,31.5,30.16,WSW,247,1.7,-999.0,40,-99.99,,,0.00,Acu-Link.com,2013-10-28 21:10:00,
2013-10-28 17:26:00,55.8,31.8,30.16,West,270,3.7,-999.0,40,-99.99,,,0.00,Acu-Link.com,2013-10-28 21:26:00,
2013-10-28 17:41:00,54.9,31.0,30.16,West,270,2.2,-999.0,40,-99.99,,,0.00,Acu-Link.com,2013-10-28 21:41:00,
2013-10-28 17:56:00,54.5,32.5,30.16,SW,225,0.0,-999.0,43,-99.99,,,0.00,Acu-Link.com,2013-10-28 21:56:00,
2013-10-28 18:11:00,53.4,32.6,30.16,NW,315,0.0,-999.0,45,-99.99,,,0.00,Acu-Link.com,2013-10-28 22:11:00,
2013-10-28 18:26:00,51.4,31.9,30.17,SE,135,0.0,-999.0,47,-99.99,,,0.00,Acu-Link.com,2013-10-28 22:26:00,
2013-10-28 18:42:00,49.8,32.4,30.18,SSW,202,0.0,-999.0,51,-99.99,,,0.00,Acu-Link.com,2013-10-28 22:42:00,
2013-10-28 18:57:00,48.2,31.9,30.19,ESE,112,0.0,-999.0,53,-99.99,,,0.00,Acu-Link.com,2013-10-28 22:57:00,
2013-10-28 19:12:00,47.1,32.7,30.19,SSE,157,0.0,-999.0,57,-99.99,,,0.00,Acu-Link.com,2013-10-28 23:12:00,
2013-10-28 19:27:00,46.6,33.5,30.19,SE,135,0.0,-999.0,60,-99.99,,,0.00,Acu-Link.com,2013-10-28 23:27:00,
2013-10-28 19:42:00,45.9,33.6,30.19,ESE,112,0.0,-999.0,62,-99.99,,,0.00,Acu-Link.com,2013-10-28 23:42:00,
2013-10-28 19:58:00,45.1,33.7,30.20,NNW,337,0.0,-999.0,64,-99.99,,,0.00,Acu-Link.com,2013-10-28 23:58:00,
2013-10-28 20:13:00,44.2,32.8,30.20,SE,135,0.0,-999.0,64,-99.99,,,0.00,Acu-Link.com,2013-10-29 00:13:00,
2013-10-28 20:28:00,43.5,32.9,30.20,SE,135,0.0,-999.0,66,-99.99,,,0.00,Acu-Link.com,2013-10-29 00:28:00,
2013-10-28 20:43:00,43.2,33.0,30.21,ESE,112,0.0,-999.0,67,-99.99,,,0.00,Acu-Link.com,2013-10-29 00:43:00,
2013-10-28 20:58:00,42.6,32.4,30.21,ESE,112,2.2,-999.0,67,-99.99,,,0.00,Acu-Link.com,2013-10-29 00:58:00,
2013-10-28 21:14:00,42.3,32.5,30.21,SE,135,2.2,-999.0,68,-99.99,,,0.00,Acu-Link.com,2013-10-29 01:14:00,
2013-10-28 21:29:00,42.1,32.3,30.21,SE,135,2.2,-999.0,68,-99.99,,,0.00,Acu-Link.com,2013-10-29 01:29:00,
2013-10-28 21:44:00,41.7,32.3,30.21,ESE,112,1.7,-999.0,69,-99.99,,,0.00,Acu-Link.com,2013-10-29 01:44:00,
2013-10-28 21:59:00,41.4,32.0,30.22,ESE,112,2.2,-999.0,69,-99.99,,,0.00,Acu-Link.com,2013-10-29 01:59:00,
2013-10-28 22:15:00,41.0,32.0,30.22,ESE,112,1.7,-999.0,70,-99.99,,,0.00,Acu-Link.com,2013-10-29 02:15:00,
2013-10-28 22:30:00,40.5,31.8,30.23,ESE,112,1.7,-999.0,71,-99.99,,,0.00,Acu-Link.com,2013-10-29 02:30:00,
2013-10-28 22:45:00,39.7,31.4,30.23,ESE,112,0.0,-999.0,72,-99.99,,,0.00,Acu-Link.com,2013-10-29 02:45:00,
2013-10-28 23:00:00,39.7,31.1,30.22,ESE,112,0.0,-999.0,71,-99.99,,,0.00,Acu-Link.com,2013-10-29 03:00:00,
2013-10-28 23:15:00,39.7,30.7,30.23,ESE,112,0.0,-999.0,70,-99.99,,,0.00,Acu-Link.com,2013-10-29 03:15:00,
2013-10-28 23:31:00,39.2,30.9,30.22,SSE,157,0.0,-999.0,72,-99.99,,,0.00,Acu-Link.com,2013-10-29 03:31:00,
2013-10-28 23:46:00,38.5,30.9,30.22,ESE,112,0.0,-999.0,74,-99.99,,,0.00,Acu-Link.com,2013-10-29 03:46:00,